K0VXP-1 Weather Reports


Display with metric or nautical units.
time (UTC)temp
F
wind
direction
speed
MPH
gust
MPH
rain 1hr
in
rain 24hr
in
rain mn
in
humidity
%
barometer
mb
20260905113050 53 61 3.0 4.0 0.00 0.00 0.00 59 1027.6
20260905111615 53 71 2.0 5.0 0.00 0.00 0.00 58 1027.5
20260905110035 54 66 2.0 5.0 0.00 0.00 0.00 56 1027.4
20260905104533 54 69 2.0 5.0 0.00 0.00 0.00 55 1027.4
20260905103038 55 70 3.0 4.0 0.00 0.00 0.00 54 1027.3
20260905101535 56 75 1.0 3.0 0.00 0.00 0.00 53 1027.3
20260905100038 56 75 1.0 3.0 0.00 0.00 0.00 52 1027.2
20260905094535 56 69 4.0 6.0 0.00 0.00 0.00 53 1027.3
20260905093041 56 76 2.0 4.0 0.00 0.00 0.00 53 1027.2
20260905091537 55 76 3.0 6.0 0.00 0.00 0.00 53 1027.2
20260905090038 55 74 4.0 8.0 0.00 0.00 0.00 52 1027.0
20260905084538 55 71 4.0 6.0 0.00 0.00 0.00 51 1026.9
20260905083037 55 59 4.0 7.0 0.00 0.00 0.00 52 1026.7
20260905081535 55 82 2.0 4.0 0.00 0.00 0.00 52 1026.7
20260905080036 55 61 3.0 6.0 0.00 0.00 0.00 51 1026.6
20260905074534 56 72 3.0 7.0 0.00 0.00 0.00 51 1026.5
20260905073038 56 62 5.0 8.0 0.00 0.00 0.00 50 1026.5
20260905071538 57 81 5.0 7.0 0.00 0.00 0.00 50 1026.5
20260905070048 57 76 4.0 7.0 0.00 0.00 0.00 50 1026.4
20260905064546 58 71 4.0 5.0 0.00 0.00 0.00 49 1026.3
20260905063034 58 71 3.0 5.0 0.00 0.00 0.00 48 1026.1
20260905061532 59 93 3.0 7.0 0.00 0.00 0.00 48 1026.2
20260905060036 59 82 2.0 5.0 0.00 0.00 0.00 48 1026.0
20260905054546 60 80 3.0 7.0 0.00 0.00 0.00 48 1026.0
20260905053037 60 75 5.0 8.0 0.00 0.00 0.00 48 1026.1
20260905051544 60 82 4.0 8.0 0.00 0.00 0.00 48 1025.9
20260905050035 60 74 5.0 9.0 0.00 0.00 0.00 49 1025.9
20260905044537 61 74 4.0 7.0 0.00 0.00 0.00 47 1026.0
20260905043036 61 82 4.0 7.0 0.00 0.00 0.00 48 1025.9
20260905041537 60 63 5.0 8.0 0.00 0.00 0.00 49 1025.9
20260905040036 61 63 5.0 9.0 0.00 0.00 0.00 49 1025.8
20260905034538 62 79 4.0 7.0 0.00 0.00 0.00 47 1025.7
20260905033037 64 74 2.0 4.0 0.00 0.00 0.00 45 1025.7
20260905031538 64 0 0.0 3.0 0.00 0.00 0.00 43 1025.5
20260905030035 65 0 0.0 3.0 0.00 0.00 0.00 42 1025.4
20260905024535 67 0 0.0 4.0 0.00 0.00 0.00 40 1025.1
20260905023037 68 213 3.0 9.0 0.00 0.00 0.00 39 1024.7
20260905021540 69 213 6.0 11.0 0.00 0.00 0.00 38 1024.4
20260905020038 70 205 8.0 13.0 0.00 0.00 0.00 38 1024.2
20260905014550 72 208 6.0 10.0 0.00 0.00 0.00 35 1024.2
20260905013036 75 219 5.0 10.0 0.00 0.00 0.00 33 1024.1
20260905011538 77 232 5.0 11.0 0.00 0.00 0.00 32 1023.9
20260905010037 78 223 6.0 15.0 0.00 0.00 0.00 32 1023.8
20260905004537 78 225 10.0 15.0 0.00 0.00 0.00 31 1023.8
20260905003037 79 230 13.0 20.0 0.00 0.00 0.00 30 1023.7
20260905001536 80 210 13.0 19.0 0.00 0.00 0.00 29 1023.8
20260905000038 81 205 12.0 19.0 0.00 0.00 0.00 28 1023.8
20260904234536 82 239 10.0 15.0 0.00 0.00 0.00 27 1023.7
20260904233035 82 201 12.0 19.0 0.00 0.00 0.00 26 1023.8
20260904231539 82 209 11.0 20.0 0.00 0.00 0.00 27 1023.9
20260904230036 82 226 10.0 21.0 0.00 0.00 0.00 27 1024.0
20260904224534 81 219 10.0 21.0 0.00 0.00 0.00 29 1024.1
20260904223043 79 202 9.0 23.0 0.00 0.00 0.00 28 1024.1
20260904221546 82 202 9.0 22.0 0.00 0.00 0.00 28 1024.2
20260904220045 81 149 10.0 21.0 0.00 0.00 0.00 30 1024.3
20260904214540 82 223 12.0 22.0 0.00 0.00 0.00 29 1024.4
20260904213037 81 212 12.0 20.0 0.00 0.00 0.00 29 1024.6
20260904211550 82 180 14.0 23.0 0.00 0.00 0.00 27 1024.9
20260904210045 82 184 14.0 22.0 0.00 0.00 0.00 29 1025.0
20260904204537 81 219 12.0 23.0 0.00 0.00 0.00 29 1025.1
20260904203035 80 178 13.0 24.0 0.00 0.00 0.00 30 1025.1
20260904201538 80 180 14.0 28.0 0.00 0.00 0.00 30 1025.3
20260904200045 80 150 17.0 26.0 0.00 0.00 0.00 31 1025.4
20260904194621 79 14.0 22.0 0.00 0.00 0.00 32 1025.5
20260904193042 78 180 17.0 27.0 0.00 0.00 0.00 32 1025.6
20260904191534 0 0.0 0.0 0.00 0.00 0.00 1025.8
20260904190046 0 0.0 0.0 0.00 0.00 0.00 1025.8
20260904184534 0 0.0 0.0 0.00 0.00 0.00 1025.8
20260904183036 0 0.0 0.0 0.00 0.00 0.00 1025.9
20260904181542 78 16.0 27.0 0.00 0.00 0.00 34 1026.1
20260904180039 0 0.0 0.0 0.00 0.00 0.00 1026.5
20260904174538 0 0.0 0.0 0.00 0.00 0.00 1026.7
20260904173053 0 0.0 0.0 0.00 0.00 0.00 1027.0
20260904171541 0 0.0 0.0 0.00 0.00 0.00 1026.8
20260904170035 0 0.0 0.0 0.00 0.00 0.00 1026.9
20260904164537 0 0.0 0.0 0.00 0.00 0.00 1026.8
20260904163034 0 0.0 0.0 0.00 0.00 0.00 1026.9
20260904161544 0 0.0 0.0 0.00 0.00 0.00 1026.9
20260904160037 0 0.0 0.0 0.00 0.00 0.00 1026.9
20260904154537 0 0.0 0.0 0.00 0.00 0.00 1026.7
20260904153038 0 0.0 0.0 0.00 0.00 0.00 1026.5
20260904151544 64 1.0 2.0 0.00 0.00 0.00 44 1026.5
20260904150038 64 218 1.0 4.0 0.00 0.00 0.00 45 1026.3
20260904144535 62 227 1.0 4.0 0.00 0.00 0.00 46 1026.4
20260904143035 62 151 1.0 3.0 0.00 0.00 0.00 47 1026.2
20260904141553 60 151 1.0 2.0 0.00 0.00 0.00 48 1026.2
20260904140049 58 151 1.0 3.0 0.00 0.00 0.00 49 1026.2
20260904134534 56 151 2.0 4.0 0.00 0.00 0.00 51 1025.9
20260904133039 54 0 0.0 0.0 0.00 0.00 0.00 53 1025.8
20260904131535 52 0 0.0 1.0 0.00 0.00 0.00 55 1025.6
20260904130036 51 59 1.0 3.0 0.00 0.00 0.00 56 1025.2
20260904124536 51 80 3.0 4.0 0.00 0.00 0.00 55 1025.0
20260904123036 51 56 2.0 4.0 0.00 0.00 0.00 54 1024.8
20260904121538 51 0 0.0 3.0 0.00 0.00 0.00 54 1024.7
20260904120042 52 0 0.0 2.0 0.00 0.00 0.00 53 1024.4
20260904114534 51 59 1.0 4.0 0.00 0.00 0.00 55 1024.5